�������l�o���
Date,Time,MP-1(��Sv/h),MP-2(��Sv/h),MP-3(��Sv/h),MP-4(��Sv/h),MP-5(��Sv/h),MP-6(��Sv/h),MP-7(��Sv/h),MP-8(��Sv/h),����,����(m/s),���J
2018/07/30,00:00,0.881,1.231,0.876,1.554,1.107,0.473,0.830,0.787,��쓌,2.0,��
2018/07/30,00:10,0.883,1.231,0.873,1.554,1.108,0.473,0.831,0.786,��쓌,2.6,��
2018/07/30,00:20,0.881,1.231,0.874,1.553,1.109,0.473,0.832,0.789,��쓌,3.2,��
2018/07/30,00:30,0.882,1.230,0.873,1.555,1.108,0.473,0.833,0.786,��쓌,2.3,��
2018/07/30,00:40,0.882,1.231,0.875,1.550,1.110,0.472,0.830,0.787,��쓌,2.5,��
2018/07/30,00:50,0.882,1.234,0.874,1.553,1.109,0.472,0.831,0.788,��쓌,2.3,��
2018/07/30,01:00,0.883,1.231,0.874,1.554,1.110,0.471,0.830,0.786,��쓌,2.8,��
2018/07/30,01:10,0.883,1.231,0.873,1.554,1.110,0.473,0.831,0.786,��쓌,3.1,��
2018/07/30,01:20,0.880,1.231,0.875,1.553,1.110,0.472,0.831,0.785,��쓌,2.8,��
2018/07/30,01:30,0.882,1.231,0.874,1.554,1.109,0.472,0.831,0.787,��쓌,3.1,��
2018/07/30,01:40,0.882,1.232,0.873,1.551,1.109,0.471,0.831,0.787,��쓌,2.9,��
2018/07/30,01:50,0.882,1.232,0.875,1.552,1.110,0.473,0.831,0.788,�쓌,2.8,��
2018/07/30,02:00,0.882,1.230,0.873,1.555,1.109,0.473,0.831,0.788,��쓌,3.0,��
2018/07/30,02:10,0.882,1.233,0.873,1.554,1.112,0.471,0.832,0.789,��쓌,2.9,��
2018/07/30,02:20,0.883,1.231,0.874,1.555,1.110,0.472,0.830,0.787,��쓌,3.2,��
2018/07/30,02:30,0.879,1.234,0.873,1.553,1.112,0.471,0.831,0.788,��쓌,3.3,��
2018/07/30,02:40,0.885,1.228,0.873,1.553,1.111,0.472,0.831,0.787,��쓌,3.5,��
2018/07/30,02:50,0.882,1.233,0.875,1.554,1.111,0.471,0.832,0.787,��쓌,3.1,��
2018/07/30,03:00,0.882,1.235,0.875,1.554,1.112,0.473,0.832,0.788,��,2.2,��
2018/07/30,03:10,0.884,1.233,0.873,1.553,1.110,0.474,0.831,0.789,��쐼,1.4,��
2018/07/30,03:20,0.883,1.232,0.875,1.552,1.111,0.474,0.832,0.789,��쓌,2.0,��
2018/07/30,03:30,0.884,1.235,0.876,1.556,1.111,0.473,0.831,0.788,��쓌,1.5,��
2018/07/30,03:40,0.882,1.234,0.875,1.553,1.111,0.474,0.833,0.788,��,1.2,��
2018/07/30,03:50,0.882,1.233,0.874,1.555,1.111,0.473,0.830,0.788,��,1.5,�L
2018/07/30,04:00,0.882,1.235,0.872,1.553,1.111,0.474,0.832,0.788,��,1.1,��
2018/07/30,04:10,0.884,1.235,0.874,1.554,1.109,0.475,0.830,0.788,��,1.2,�L
2018/07/30,04:20,0.882,1.235,0.876,1.555,1.112,0.473,0.830,0.788,��,1.2,��
2018/07/30,04:30,0.882,1.236,0.876,1.552,1.113,0.473,0.831,0.787,��쐼,1.2,��
2018/07/30,04:40,0.885,1.233,0.875,1.553,1.112,0.474,0.832,0.788,��쐼,1.2,��
2018/07/30,04:50,0.884,1.234,0.875,1.554,1.112,0.473,0.831,0.788,��,0.9,��
2018/07/30,05:00,0.884,1.233,0.873,1.553,1.112,0.473,0.832,0.789,��,0.9,��
2018/07/30,05:10,0.882,1.233,0.874,1.554,1.111,0.474,0.832,0.788,�쐼,1.7,��
2018/07/30,05:20,0.885,1.233,0.875,1.553,1.112,0.474,0.832,0.787,�쐼,0.9,��
2018/07/30,05:30,0.884,1.235,0.874,1.553,1.110,0.474,0.832,0.789,���쐼,1.1,��
2018/07/30,05:40,0.884,1.234,0.873,1.552,1.110,0.474,0.832,0.788,��,0.9,��
2018/07/30,05:50,0.881,1.234,0.875,1.554,1.112,0.474,0.832,0.787,���쐼,0.9,��
2018/07/30,06:00,0.883,1.234,0.876,1.551,1.112,0.474,0.832,0.787,���쐼,1.2,��
2018/07/30,06:10,0.883,1.237,0.875,1.555,1.110,0.475,0.834,0.789,���쐼,1.2,��
2018/07/30,06:20,0.883,1.235,0.876,1.557,1.113,0.473,0.833,0.790,�쐼,1.1,��
2018/07/30,06:30,0.883,1.237,0.875,1.556,1.112,0.475,0.832,0.787,��쐼,0.8,��
2018/07/30,06:40,0.886,1.237,0.875,1.556,1.110,0.475,0.833,0.789,��,0.9,��
2018/07/30,06:50,0.884,1.234,0.874,1.554,1.113,0.474,0.831,0.788,�k�k��,0.8,��
2018/07/30,07:00,0.884,1.235,0.874,1.553,1.113,0.474,0.833,0.788,-,CALM,��
2018/07/30,07:10,0.884,1.235,0.874,1.554,1.114,0.474,0.835,0.788,���k��,0.8,��
2018/07/30,07:20,0.885,1.235,0.875,1.554,1.115,0.474,0.833,0.787,���k��,1.5,��
2018/07/30,07:30,0.886,1.237,0.876,1.555,1.116,0.475,0.833,0.789,��,1.2,��
2018/07/30,07:40,0.884,1.240,0.874,1.556,1.112,0.475,0.834,0.789,��,1.7,��
2018/07/30,07:50,0.885,1.239,0.876,1.556,1.114,0.477,0.834,0.788,��,1.7,��
2018/07/30,08:00,0.884,1.242,0.875,1.554,1.116,0.473,0.832,0.787,��,1.4,��
2018/07/30,08:10,0.885,1.243,0.876,1.553,1.116,0.476,0.833,0.788,��,1.4,��
2018/07/30,08:20,0.884,1.240,0.875,1.555,1.117,0.474,0.832,0.788,��,1.5,��
2018/07/30,08:30,0.889,1.238,0.876,1.556,1.115,0.474,0.833,0.789,���쓌,1.4,��
2018/07/30,08:40,0.888,1.241,0.877,1.558,1.117,0.474,0.835,0.789,�쓌,1.7,��
2018/07/30,08:50,0.888,1.236,0.876,1.559,1.117,0.475,0.834,0.787,���쓌,2.0,��
2018/07/30,09:00,0.889,1.236,0.874,1.557,1.115,0.474,0.834,0.787,��,2.0,��
2018/07/30,09:10,0.892,1.236,0.873,1.557,1.116,0.474,0.832,0.789,��,2.3,��
2018/07/30,09:20,0.892,1.236,0.875,1.559,1.114,0.473,0.835,0.788,���쓌,1.5,��
2018/07/30,09:30,0.891,1.237,0.876,1.557,1.118,0.476,0.833,0.789,���쓌,1.7,��
2018/07/30,09:40,0.892,1.236,0.875,1.556,1.117,0.475,0.834,0.785,�쓌,1.4,��
2018/07/30,09:50,0.890,1.238,0.874,1.558,1.118,0.475,0.834,0.787,���쓌,1.2,��
2018/07/30,10:00,0.890,1.238,0.876,1.556,1.120,0.473,0.833,0.788,���쓌,2.0,��
2018/07/30,10:10,0.892,1.241,0.876,1.558,1.121,0.475,0.831,0.787,���쓌,2.6,��
2018/07/30,10:20,0.892,1.240,0.876,1.559,1.122,0.475,0.832,0.788,���쓌,2.5,��
2018/07/30,10:30,0.893,1.240,0.876,1.558,1.122,0.475,0.835,0.787,�쓌,2.5,��
2018/07/30,10:40,0.890,1.242,0.876,1.561,1.126,0.475,0.833,0.788,���쓌,2.3,��
2018/07/30,10:50,0.893,1.244,0.879,1.560,1.125,0.474,0.834,0.787,���쓌,2.6,��
2018/07/30,11:00,0.893,1.246,0.878,1.562,1.126,0.474,0.835,0.788,���쓌,2.6,��
2018/07/30,11:10,0.893,1.246,0.879,1.558,1.123,0.476,0.836,0.790,���쓌,2.6,��
2018/07/30,11:20,0.894,1.245,0.880,1.558,1.126,0.475,0.835,0.788,���쓌,3.2,��
2018/07/30,11:30,0.892,1.245,0.880,1.556,1.127,0.476,0.834,0.788,�쓌,3.1,��
2018/07/30,11:40,0.894,1.248,0.879,1.562,1.128,0.475,0.836,0.788,�쓌,3.6,��
2018/07/30,11:50,0.894,1.245,0.881,1.560,1.127,0.476,0.835,0.791,���쓌,3.1,��
2018/07/30,12:00,0.896,1.249,0.880,1.561,1.129,0.476,0.835,0.788,�쓌,3.7,��
2018/07/30,12:10,0.896,1.246,0.883,1.561,1.128,0.477,0.837,0.789,�쓌,3.5,��
2018/07/30,12:20,0.896,1.248,0.882,1.559,1.130,0.476,0.836,0.790,�쓌,3.2,��
2018/07/30,12:30,0.897,1.250,0.880,1.563,1.130,0.477,0.836,0.789,�쓌,3.8,��
2018/07/30,12:40,0.897,1.250,0.881,1.564,1.128,0.476,0.837,0.789,��쓌,4.9,��
2018/07/30,12:50,0.894,1.249,0.883,1.565,1.129,0.475,0.836,0.789,�쓌,4.4,��
2018/07/30,13:00,0.893,1.250,0.881,1.562,1.133,0.476,0.835,0.789,��쓌,4.0,��
2018/07/30,13:10,0.897,1.253,0.883,1.564,1.132,0.477,0.839,0.789,��쓌,3.6,��
2018/07/30,13:20,0.897,1.253,0.882,1.564,1.132,0.475,0.835,0.790,�쓌,3.5,��
2018/07/30,13:30,0.895,1.255,0.882,1.564,1.133,0.477,0.836,0.788,��쓌,3.8,��
2018/07/30,13:40,0.896,1.258,0.883,1.563,1.133,0.478,0.838,0.789,��쓌,5.8,��
2018/07/30,13:50,0.898,1.259,0.883,1.566,1.131,0.475,0.838,0.790,��쓌,5.7,��
2018/07/30,14:00,0.896,1.258,0.883,1.564,1.134,0.475,0.838,0.790,��쓌,5.9,��
2018/07/30,14:10,0.894,1.259,0.884,1.564,1.136,0.476,0.838,0.792,��쓌,4.4,��
2018/07/30,14:20,0.897,1.260,0.884,1.565,1.136,0.478,0.838,0.791,��쓌,5.1,��
2018/07/30,14:30,0.893,1.256,0.883,1.565,1.134,0.477,0.837,0.791,�쓌,4.1,��
2018/07/30,14:40,0.898,1.258,0.881,1.566,1.135,0.476,0.838,0.789,��쓌,7.0,��
2018/07/30,14:50,0.896,1.261,0.883,1.565,1.135,0.477,0.837,0.791,��쓌,7.1,��
2018/07/30,15:00,0.896,1.260,0.883,1.565,1.134,0.476,0.838,0.790,��쓌,7.0,��
2018/07/30,15:10,0.896,1.265,0.884,1.568,1.137,0.475,0.836,0.790,��쓌,7.6,��
2018/07/30,15:20,0.896,1.261,0.884,1.568,1.136,0.476,0.837,0.791,��쓌,7.6,��
2018/07/30,15:30,0.897,1.263,0.882,1.567,1.137,0.477,0.838,0.792,��쓌,5.1,��
2018/07/30,15:40,0.897,1.264,0.883,1.566,1.136,0.476,0.837,0.790,��쓌,6.1,��
2018/07/30,15:50,0.898,1.264,0.884,1.568,1.138,0.475,0.837,0.791,��쓌,6.2,��
2018/07/30,16:00,0.898,1.262,0.883,1.570,1.136,0.476,0.836,0.791,�쓌,3.9,��
2018/07/30,16:10,0.897,1.264,0.883,1.566,1.137,0.474,0.836,0.791,�쓌,4.4,��
2018/07/30,16:20,0.897,1.263,0.884,1.567,1.138,0.474,0.838,0.789,��쓌,6.1,��
2018/07/30,16:30,0.896,1.264,0.883,1.568,1.136,0.473,0.838,0.790,��쓌,5.2,��
2018/07/30,16:40,0.895,1.264,0.884,1.570,1.138,0.474,0.839,0.788,��쓌,6.9,��
2018/07/30,16:50,0.897,1.264,0.883,1.573,1.138,0.475,0.840,0.790,��쓌,5.5,��
2018/07/30,17:00,0.898,1.265,0.883,1.571,1.137,0.474,0.839,0.790,��쓌,6.0,��
2018/07/30,17:10,0.899,1.263,0.883,1.569,1.138,0.473,0.839,0.790,��쓌,5.5,��
2018/07/30,17:20,0.896,1.264,0.885,1.569,1.135,0.474,0.839,0.790,��쓌,6.4,��
2018/07/30,17:30,0.894,1.263,0.884,1.570,1.134,0.474,0.838,0.791,��쓌,4.8,��
2018/07/30,17:40,0.896,1.264,0.884,1.571,1.138,0.474,0.839,0.791,��쓌,6.2,��
2018/07/30,17:50,0.897,1.267,0.883,1.572,1.139,0.474,0.838,0.792,��쓌,7.0,��
2018/07/30,18:00,0.896,1.267,0.884,1.571,1.137,0.473,0.838,0.790,��쓌,6.8,��
2018/07/30,18:10,0.897,1.266,0.882,1.571,1.137,0.474,0.838,0.791,��,5.5,��
2018/07/30,18:20,0.898,1.264,0.883,1.571,1.138,0.475,0.836,0.790,��쓌,5.5,��
2018/07/30,18:30,0.895,1.266,0.884,1.571,1.138,0.474,0.838,0.791,��,5.6,��
2018/07/30,18:40,0.897,1.263,0.884,1.569,1.140,0.474,0.837,0.792,��쓌,5.6,��
2018/07/30,18:50,0.894,1.265,0.885,1.571,1.138,0.475,0.837,0.790,��,5.5,��
2018/07/30,19:00,0.896,1.267,0.883,1.571,1.140,0.477,0.838,0.792,��,4.8,��
2018/07/30,19:10,0.896,1.269,0.885,1.570,1.139,0.476,0.837,0.790,��쓌,5.7,��
2018/07/30,19:20,0.897,1.267,0.884,1.571,1.137,0.476,0.837,0.791,��쓌,6.8,��
2018/07/30,19:30,0.896,1.266,0.885,1.570,1.139,0.475,0.837,0.791,��쓌,6.9,��
2018/07/30,19:40,0.895,1.266,0.884,1.571,1.138,0.478,0.836,0.791,��,5.2,��
2018/07/30,19:50,0.897,1.264,0.886,1.572,1.140,0.477,0.837,0.791,��쓌,5.8,��
2018/07/30,20:00,0.896,1.266,0.885,1.573,1.138,0.477,0.836,0.791,��,5.5,��
2018/07/30,20:10,0.895,1.264,0.886,1.572,1.139,0.479,0.838,0.790,��,5.0,��
2018/07/30,20:20,0.896,1.264,0.885,1.571,1.137,0.478,0.839,0.789,��,5.4,��
2018/07/30,20:30,0.896,1.267,0.887,1.571,1.138,0.477,0.839,0.791,��,5.7,��
2018/07/30,20:40,0.896,1.267,0.889,1.571,1.138,0.478,0.839,0.793,��,6.4,��
2018/07/30,20:50,0.896,1.269,0.887,1.571,1.137,0.478,0.837,0.790,��쓌,7.0,��
2018/07/30,21:00,0.895,1.264,0.884,1.571,1.141,0.478,0.836,0.790,��쓌,7.0,��
2018/07/30,21:10,0.896,1.263,0.885,1.572,1.138,0.476,0.837,0.792,��쓌,6.7,��
2018/07/30,21:20,0.896,1.266,0.885,1.574,1.136,0.478,0.837,0.791,��쓌,6.2,��
2018/07/30,21:30,0.895,1.264,0.887,1.570,1.138,0.477,0.838,0.791,��쓌,6.5,��
2018/07/30,21:40,0.894,1.264,0.887,1.573,1.138,0.477,0.839,0.790,��쓌,6.2,��
2018/07/30,21:50,0.895,1.265,0.887,1.570,1.140,0.477,0.838,0.792,��쓌,5.8,�L
2018/07/30,22:00,0.894,1.264,0.887,1.571,1.138,0.478,0.838,0.789,��쓌,7.4,��
2018/07/30,22:10,0.896,1.267,0.886,1.572,1.138,0.478,0.837,0.791,��,5.9,��
2018/07/30,22:20,0.898,1.267,0.888,1.570,1.137,0.480,0.839,0.791,��,5.5,��
2018/07/30,22:30,0.896,1.264,0.887,1.571,1.138,0.478,0.838,0.792,��,5.0,��
2018/07/30,22:40,0.896,1.266,0.888,1.570,1.137,0.478,0.837,0.790,��,4.3,��
2018/07/30,22:50,0.894,1.265,0.887,1.574,1.139,0.479,0.838,0.790,��,4.3,��
2018/07/30,23:00,0.895,1.265,0.888,1.573,1.139,0.480,0.838,0.792,��,3.7,��
2018/07/30,23:10,0.894,1.265,0.886,1.572,1.139,0.479,0.837,0.790,��,3.8,��
2018/07/30,23:20,0.897,1.265,0.886,1.568,1.139,0.478,0.837,0.791,��,4.1,��
2018/07/30,23:30,0.896,1.266,0.886,1.571,1.140,0.479,0.837,0.793,��,4.9,��
2018/07/30,23:40,0.894,1.266,0.888,1.573,1.139,0.480,0.839,0.793,��쓌,4.4,��
2018/07/30,23:50,0.895,1.263,0.886,1.572,1.138,0.478,0.838,0.791,��쓌,4.5,��
